Погода в Осташково

Россия / Омская область     54°57′45″N   73°33′19″E
темп.,
°C
ветер,
м/с
пор.,
м/с
влажн.,
%
обл.,
%
осадки,
мм/ч
давл.,
гПа
погр.,
м
24 мая, вт
вт2400:00+17ю61454100 0.0 1014440
03:00+16ю41156100 0.0 1015312
06:00+15ю4106065 0.0 1016244
09:00+21ююз584410 0.0 1016521
12:00+25юз563282 0.0 10172571
15:00+26ююз462890 0.0 10162897
18:00+26ю342742 0.0 10162709
21:00+22ююв35380 0.0 101671
25 мая, ср
ср2500:00+19юв33380 0.0 101735
03:00+17ююв22455 0.0 101717
06:00+17ююв22471 0.0 101823
09:00+23юв23360 0.0 1018334
12:00+27юв34271 0.0 10172377
15:00+28вюв4526100 0.0 10162615
18:00+28вюв552951 0.0 10152640
21:00+22вюв41042100 0.0 1015273
26 мая, чт
чт2600:00+20вюв4945100 0.0 1015176
03:00+18вюв375282 0.0 1015131
06:00+17вюв385969 0.0 1015160
09:00+23вюв59446 0.0 1014628
12:00+27юв78312 0.0 10132081
15:00+29юв68240 0.0 10112396
18:00+29юв68270 0.0 10102410
21:00+23вюв612454 0.0 1009416
27 мая, пт
пт2700:00+22вюв81746100 0.0 1007629
03:00+21юв51454100 0.1 1007541
06:00+18юв61471100 0.9 1007476
09:00+21ююз56573 0.0 1007836
12:00+22юз67475 0.0 10071398
15:00+23зюз67430 0.0 10081632
18:00+18з7853100 0.0 10101355
21:00+13з6870100 0.0 1013823
28 мая, сб
сб2800:00+12з697177 0.0 1013792
03:00+10зсз511730 0.0 1014556
06:00+10зсз410790 0.0 1015449
09:00+15сз585590 0.0 10151068
12:00+18сз5637100 0.0 10151814
15:00+20сз5633100 0.0 10152075
18:00+20сз4534100 0.0 10152302
21:00+16сз36499 0.0 1016357